WA8SIE Weather Reports


Display with metric or nautical units.
time (UTC)temp
F
wind
direction
speed
MPH
gust
MPH
rain 1hr
in
rain 24hr
in
rain mn
in
humidity
%
barometer
mb
20260901135511 82 198 0.0 0.0 0.00 0.00 0.00 78 1014.7
20260901135011 81 197 0.0 0.0 0.00 0.00 0.00 79 1014.7
20260901134511 81 197 0.0 0.0 0.00 0.00 0.00 81 1014.7
20260901134013 81 197 0.0 0.0 0.00 0.00 0.00 82 1014.7
20260901133511 80 197 0.0 0.0 0.00 0.00 0.00 83 1014.7
20260901133011 80 198 0.0 0.0 0.00 0.00 0.00 84 1014.7
20260901132511 79 198 0.0 0.0 0.00 0.00 0.00 85 1014.9
20260901132011 79 198 0.0 0.0 0.00 0.00 0.00 88 1014.9
20260901130511 77 198 0.0 0.0 0.00 0.00 0.00 93 1014.9
20260901130011 76 198 0.0 0.0 0.00 0.00 0.00 95 1014.9
20260901125011 76 198 0.0 0.0 0.00 0.00 0.00 99 1015.0
20260901124511 75 198 0.0 0.0 0.00 0.00 0.00 100 1015.0
20260901123511 74 198 0.0 3.0 0.00 0.00 0.00 100 1015.1
20260901123011 74 198 0.0 3.0 0.00 0.00 0.00 100 1015.1
20260901122511 74 198 0.0 3.0 0.00 0.00 0.00 100 1015.1
20260901122011 73 198 2.0 3.0 0.00 0.00 0.00 100 1015.1
20260901121511 73 198 2.0 3.0 0.00 0.00 0.00 100 1015.1
20260901121011 73 198 0.0 0.0 0.00 0.00 0.00 100 1015.0
20260901120511 73 198 0.0 0.0 0.00 0.00 0.00 100 1015.0
20260901120011 72 198 0.0 0.0 0.00 0.00 0.00 100 1015.0
20260901115511 72 198 0.0 0.0 0.00 0.00 0.00 100 1014.7
20260901115011 72 198 0.0 0.0 0.00 0.00 0.00 100 1014.7
20260901114511 72 198 0.0 0.0 0.00 0.00 0.00 100 1014.7
20260901114012 72 198 0.0 0.0 0.00 0.00 0.00 100 1014.5
20260901113511 72 199 0.0 0.0 0.00 0.00 0.00 100 1014.5
20260901113011 72 198 0.0 0.0 0.00 0.00 0.00 100 1014.5
20260901112011 72 198 0.0 0.0 0.00 0.00 0.00 100 1014.5
20260901111511 72 198 0.0 0.0 0.00 0.00 0.00 100 1014.5
20260901111011 71 198 0.0 0.0 0.00 0.00 0.00 100 1014.3
20260901110512 71 198 0.0 0.0 0.00 0.00 0.00 100 1014.3
20260901105511 72 198 0.0 0.0 0.00 0.00 0.00 100 1014.1
20260901105011 72 198 0.0 0.0 0.00 0.00 0.00 100 1014.1
20260901104511 72 198 0.0 0.0 0.00 0.00 0.00 100 1014.1
20260901103511 72 198 0.0 0.0 0.00 0.00 0.00 100 1013.9
20260901103011 72 198 0.0 0.0 0.00 0.00 0.00 100 1013.9
20260901102511 72 198 0.0 0.0 0.00 0.00 0.00 100 1013.8
20260901102011 72 198 0.0 0.0 0.00 0.00 0.00 100 1013.8
20260901101511 72 199 0.0 0.0 0.00 0.00 0.00 100 1013.8
20260901101011 72 198 0.0 0.0 0.00 0.00 0.00 100 1013.6
20260901100012 72 198 0.0 0.0 0.00 0.00 0.00 100 1013.6
20260901095511 72 198 0.0 0.0 0.00 0.00 0.00 100 1013.5
20260901095011 72 198 0.0 0.0 0.00 0.00 0.00 100 1013.5
20260901094512 72 198 0.0 0.0 0.00 0.00 0.00 100 1013.5
20260901094012 72 198 0.0 0.0 0.00 0.00 0.00 100 1013.5
20260901093511 72 198 0.0 0.0 0.00 0.00 0.00 100 1013.5
20260901093011 72 198 0.0 0.0 0.00 0.00 0.00 100 1013.5
20260901092511 72 198 0.0 0.0 0.00 0.00 0.00 100 1013.5
20260901091012 72 198 0.0 0.0 0.00 0.00 0.00 100 1013.2
20260901090511 72 198 0.0 0.0 0.00 0.00 0.00 100 1013.2
20260901090010 72 198 0.0 0.0 0.00 0.00 0.00 100 1013.2
20260901085510 72 198 0.0 0.0 0.00 0.00 0.00 100 1013.3
20260901085011 72 198 0.0 0.0 0.00 0.00 0.00 100 1013.3
20260901084511 73 198 0.0 0.0 0.00 0.00 0.00 100 1013.3
20260901084011 73 198 0.0 0.0 0.00 0.00 0.00 100 1013.1
20260901083510 73 198 0.0 0.0 0.00 0.00 0.00 100 1013.1
20260901082011 73 198 0.0 0.0 0.00 0.00 0.00 100 1013.1
20260901081512 73 198 0.0 0.0 0.00 0.00 0.00 100 1013.1
20260901081010 73 198 0.0 0.0 0.00 0.00 0.00 100 1013.2
20260901080511 73 198 0.0 0.0 0.00 0.00 0.00 100 1013.2
20260901080010 73 198 0.0 0.0 0.00 0.00 0.00 100 1013.2
20260901075511 73 198 0.0 0.0 0.00 0.00 0.00 100 1013.1
20260901075011 73 198 0.0 0.0 0.00 0.00 0.00 100 1013.1
20260901074511 73 198 0.0 0.0 0.00 0.00 0.00 100 1013.1
20260901074012 73 198 0.0 0.0 0.00 0.00 0.00 100 1012.9
20260901073511 73 198 0.0 0.0 0.00 0.00 0.00 100 1012.9
20260901073010 74 198 0.0 0.0 0.00 0.00 0.00 100 1012.9
20260901072510 74 198 0.0 0.0 0.00 0.00 0.00 100 1013.0
20260901072011 74 198 0.0 0.0 0.00 0.00 0.00 100 1013.0
20260901071511 74 198 0.0 0.0 0.00 0.00 0.00 100 1013.0
20260901071010 74 198 0.0 0.0 0.00 0.00 0.00 100 1013.0
20260901070510 74 198 0.0 0.0 0.00 0.00 0.00 100 1013.0
20260901065511 74 198 0.0 0.0 0.00 0.00 0.00 100 1012.9
20260901065010 74 198 0.0 0.0 0.00 0.00 0.00 100 1012.9
20260901064510 74 199 0.0 0.0 0.00 0.00 0.00 100 1012.9
20260901064010 74 198 0.0 0.0 0.00 0.00 0.00 100 1012.9
20260901063511 74 198 0.0 0.0 0.00 0.00 0.00 100 1012.9
20260901063010 74 198 0.0 0.0 0.00 0.00 0.00 100 1012.9
20260901062510 74 198 0.0 0.0 0.00 0.00 0.00 100 1013.0
20260901062010 75 198 0.0 0.0 0.00 0.00 0.00 100 1013.0
20260901061511 75 198 0.0 0.0 0.00 0.00 0.00 100 1013.0
20260901061010 75 198 0.0 0.0 0.00 0.00 0.00 100 1013.0
20260901060510 75 198 0.0 0.0 0.00 0.00 0.00 100 1013.0
20260901060012 75 198 0.0 0.0 0.00 0.00 0.00 100 1013.0
20260901055510 75 198 0.0 0.0 0.00 0.00 0.00 100 1013.2
20260901055010 75 198 0.0 0.0 0.00 0.00 0.00 100 1013.2
20260901054510 75 198 0.0 0.0 0.00 0.00 0.00 100 1013.2
20260901054010 75 198 0.0 0.0 0.00 0.00 0.00 100 1013.4
20260901053510 75 198 0.0 0.0 0.00 0.00 0.00 100 1013.4
20260901053010 75 198 0.0 0.0 0.00 0.00 0.00 100 1013.4
20260901052510 75 198 0.0 0.0 0.00 0.00 0.00 100 1013.3
20260901052010 75 198 0.0 0.0 0.00 0.00 0.00 100 1013.3
20260901051510 76 198 0.0 0.0 0.00 0.00 0.00 100 1013.3
20260901051010 76 198 0.0 0.0 0.00 0.00 0.00 100 1013.3
20260901050511 76 198 0.0 0.0 0.00 0.00 0.00 100 1013.3
20260901050011 76 198 0.0 0.0 0.00 0.00 0.00 100 1013.3
20260901045511 76 198 0.0 0.0 0.00 0.00 0.00 100 1013.3
20260901045011 76 198 0.0 0.0 0.00 0.00 0.00 99 1013.3
20260901044511 76 198 0.0 0.0 0.00 0.00 0.00 99 1013.3
20260901044011 76 198 0.0 0.0 0.00 0.00 0.00 99 1013.5
20260901043511 76 198 0.0 0.0 0.00 0.00 0.00 99 1013.5
20260901042011 77 198 0.0 0.0 0.00 0.00 0.00 99 1013.6
20260901041511 77 198 0.0 0.0 0.00 0.00 0.00 98 1013.6
20260901041011 77 198 0.0 0.0 0.00 0.00 0.00 98 1013.9
20260901040511 77 198 0.0 0.0 0.00 0.00 0.00 98 1013.9
20260901040011 77 198 0.0 0.0 0.00 0.00 0.00 98 1013.9
20260901035511 77 198 0.0 0.0 0.00 0.00 0.00 97 1013.7
20260901035011 77 198 0.0 0.0 0.00 0.00 0.00 97 1013.7
20260901034011 78 198 0.0 0.0 0.00 0.00 0.00 97 1013.7
20260901033511 78 198 0.0 0.0 0.00 0.00 0.00 97 1013.7
20260901033011 78 198 0.0 0.0 0.00 0.00 0.00 97 1013.7
20260901032511 78 198 0.0 0.0 0.00 0.00 0.00 97 1013.7
20260901032011 78 198 0.0 0.0 0.00 0.00 0.00 97 1013.7
20260901031511 78 199 0.0 0.0 0.00 0.00 0.00 96 1013.7
20260901031011 78 198 0.0 0.0 0.00 0.00 0.00 96 1013.7
20260901025511 78 198 0.0 0.0 0.00 0.00 0.00 96 1013.9
20260901025011 78 199 0.0 2.0 0.00 0.00 0.00 96 1013.9
20260901024511 79 198 0.0 2.0 0.00 0.00 0.00 95 1013.9
20260901024013 79 198 0.0 0.0 0.00 0.00 0.00 95 1013.8
20260901023511 79 198 0.0 0.0 0.00 0.00 0.00 95 1013.8
20260901023011 79 198 0.0 0.0 0.00 0.00 0.00 95 1013.8
20260901022011 79 198 0.0 0.0 0.00 0.00 0.00 95 1013.7
20260901021011 79 198 0.0 0.0 0.00 0.00 0.00 94 1013.8
20260901020511 79 198 0.0 0.0 0.00 0.00 0.00 94 1013.8
20260901015011 80 198 0.0 0.0 0.00 0.00 0.00 93 1013.6
20260901014513 80 198 0.0 0.0 0.00 0.00 0.00 93 1013.6
20260901014011 80 198 0.0 0.0 0.00 0.00 0.00 93 1013.4
20260901013511 80 198 0.0 0.0 0.00 0.00 0.00 92 1013.4
20260901013011 80 198 0.0 0.0 0.00 0.00 0.00 92 1013.4
20260901012011 80 198 0.0 0.0 0.00 0.00 0.00 92 1013.3
20260901011011 80 198 0.0 0.0 0.00 0.00 0.00 91 1013.2
20260901010510 81 199 0.0 0.0 0.00 0.00 0.00 90 1013.2
20260901005511 81 198 0.0 1.0 0.00 0.00 0.00 90 1012.9
20260901005012 81 198 0.0 1.0 0.00 0.00 0.00 90 1012.9
20260901004510 81 198 0.0 0.0 0.00 0.00 0.00 89 1012.9
20260901004012 81 198 0.0 0.0 0.00 0.00 0.00 89 1012.7
20260901003511 81 198 0.0 0.0 0.00 0.00 0.00 89 1012.7
20260901003011 81 198 0.0 0.0 0.00 0.00 0.00 88 1012.7
20260901002511 82 198 0.0 0.0 0.00 0.00 0.00 88 1012.5
20260901002011 82 198 0.0 0.0 0.00 0.00 0.00 87 1012.5
20260901001513 82 198 0.0 0.0 0.00 0.00 0.00 87 1012.5
20260901000510 82 198 0.0 0.0 0.00 0.00 0.00 86 1012.6
20260901000012 82 198 0.0 0.0 0.00 0.00 0.00 86 1012.6
20260831235511 82 198 0.0 0.0 0.00 0.00 0.00 86 1012.6
20260831235011 83 198 0.0 0.0 0.00 0.00 0.00 84 1012.6
20260831234511 83 198 0.0 0.0 0.00 0.00 0.00 84 1012.6
20260831234012 83 198 0.0 0.0 0.00 0.00 0.00 83 1012.6
20260831233511 83 198 0.0 3.0 0.00 0.00 0.00 83 1012.6
20260831233010 83 198 0.0 3.0 0.00 0.00 0.00 83 1012.6
20260831232510 83 198 1.0 3.0 0.00 0.00 0.00 83 1012.6
20260831232010 83 198 2.0 2.0 0.00 0.00 0.00 82 1012.6
20260831231511 84 198 0.0 0.0 0.00 0.00 0.00 81 1012.6
20260831231011 84 198 0.0 0.0 0.00 0.00 0.00 82 1012.8
20260831230511 84 198 0.0 0.0 0.00 0.00 0.00 81 1012.8
20260831230010 84 198 0.0 1.0 0.00 0.00 0.00 79 1012.8
20260831225510 84 198 0.0 1.0 0.00 0.00 0.00 78 1012.9
20260831225011 84 198 0.0 0.0 0.00 0.00 0.00 76 1012.9
20260831224511 85 198 0.0 0.0 0.00 0.00 0.00 75 1012.9
20260831223512 86 198 0.0 0.0 0.00 0.00 0.00 74 1012.9
20260831223011 86 198 0.0 0.0 0.00 0.00 0.00 73 1012.9
20260831222510 86 198 0.0 0.0 0.00 0.00 0.00 72 1013.0
20260831222010 86 198 0.0 0.0 0.00 0.00 0.00 71 1013.0
20260831221510 87 198 0.0 0.0 0.00 0.00 0.00 69 1013.0
20260831221010 87 198 0.0 0.0 0.00 0.00 0.00 69 1013.0
20260831220510 87 198 0.0 0.0 0.00 0.00 0.00 67 1013.0
20260831220011 87 198 0.0 0.0 0.00 0.00 0.00 70 1013.0
20260831215012 87 198 0.0 0.0 0.00 0.00 0.00 70 1013.2
20260831214511 87 198 0.0 0.0 0.00 0.00 0.00 67 1013.2
20260831214010 87 198 0.0 0.0 0.00 0.00 0.00 66 1013.4
20260831213510 87 198 0.0 3.0 0.00 0.00 0.00 63 1013.4
20260831213010 88 198 0.0 3.0 0.00 0.00 0.00 62 1013.4
20260831212010 89 198 0.0 6.0 0.00 0.00 0.00 60 1013.3
20260831211511 89 198 0.0 6.0 0.00 0.00 0.00 61 1013.3
20260831211010 89 181 0.0 0.0 0.00 0.00 0.00 61 1013.1
20260831210512 89 181 0.0 0.0 0.00 0.00 0.00 62 1013.1
20260831210011 89 181 0.0 1.0 0.00 0.00 0.00 60 1013.1
20260831205510 89 181 0.0 4.0 0.00 0.00 0.00 59 1013.3
20260831205011 89 181 0.0 6.0 0.00 0.00 0.00 59 1013.3
20260831204510 90 195 0.0 6.0 0.00 0.00 0.00 58 1013.3
20260831204011 90 223 0.0 5.0 0.00 0.00 0.00 56 1013.4
20260831203510 90 249 1.0 4.0 0.00 0.00 0.00 58 1013.4
20260831203012 90 297 2.0 4.0 0.00 0.00 0.00 58 1013.4
20260831202511 90 232 0.0 4.0 0.00 0.00 0.00 58 1013.5
20260831202011 90 321 3.0 4.0 0.00 0.00 0.00 58 1013.5
20260831201511 90 198 0.0 4.0 0.00 0.00 0.00 58 1013.5
20260831201011 90 197 0.0 1.0 0.00 0.00 0.00 58 1013.7
20260831200513 90 198 0.0 3.0 0.00 0.00 0.00 57 1013.7
20260831200011 90 15 1.0 3.0 0.00 0.00 0.00 59 1013.7
20260831195511 89 178 0.0 6.0 0.00 0.00 0.00 60 1013.9
20260831195011 89 177 0.0 6.0 0.00 0.00 0.00 60 1013.9
20260831194511 90 177 0.0 5.0 0.00 0.00 0.00 59 1013.9
20260831194011 90 225 0.0 5.0 0.00 0.00 0.00 60 1014.0
20260831193511 90 301 0.0 7.0 0.00 0.00 0.00 59 1014.0
20260831193011 90 210 0.0 7.0 0.00 0.00 0.00 60 1014.0
20260831192511 90 222 2.0 4.0 0.00 0.00 0.00 60 1014.2
20260831191511 90 25 0.0 3.0 0.00 0.00 0.00 60 1014.2
20260831191011 90 25 0.0 4.0 0.00 0.00 0.00 61 1014.4
20260831190511 90 27 0.0 4.0 0.00 0.00 0.00 59 1014.4
20260831190011 90 332 0.0 6.0 0.00 0.00 0.00 61 1014.4
20260831185512 90 301 0.0 6.0 0.00 0.00 0.00 61 1014.5
20260831185013 90 316 3.0 5.0 0.00 0.00 0.00 61 1014.5
20260831184513 90 193 0.0 5.0 0.00 0.00 0.00 63 1014.5
20260831184011 89 325 0.0 4.0 0.00 0.00 0.00 63 1014.6
20260831183011 88 185 0.0 6.0 0.00 0.00 0.00 64 1014.6
20260831182511 88 226 0.0 4.0 0.00 0.00 0.00 63 1014.7
20260831182011 88 274 0.0 9.0 0.00 0.00 0.00 66 1014.7
20260831181511 88 338 0.0 9.0 0.00 0.00 0.00 65 1014.7
20260831170011 86 202 0.0 3.0 0.00 0.00 0.00 69 1015.2
20260831165511 85 201 0.0 3.0 0.00 0.00 0.00 67 1015.3
20260831165011 85 202 1.0 4.0 0.00 0.00 0.00 71 1015.3
20260831164512 84 202 0.0 4.0 0.00 0.00 0.00 70 1015.3
20260831163511 84 182 0.0 9.0 0.00 0.00 0.00 71 1015.5
20260831163011 84 183 0.0 9.0 0.00 0.00 0.00 75 1015.5
20260831162511 83 193 0.0 2.0 0.00 0.00 0.00 78 1015.6
20260831162013 82 205 0.0 2.0 0.00 0.00 0.00 79 1015.6
20260831161513 82 205 0.0 2.0 0.00 0.00 0.00 81 1015.6
20260831161011 81 205 0.0 3.0 0.00 0.00 0.00 81 1015.6
20260831160511 81 205 0.0 3.0 0.00 0.00 0.00 83 1015.6
20260831160011 80 217 0.0 0.0 0.00 0.00 0.00 83 1015.6
20260831155511 80 217 0.0 0.0 0.00 0.00 0.00 83 1015.6
20260831154511 80 216 0.0 3.0 0.00 0.00 0.00 82 1015.6
20260831154011 80 217 0.0 3.0 0.00 0.00 0.00 81 1015.8
20260831153511 80 217 0.0 3.0 0.00 0.00 0.00 80 1015.8
20260831153011 80 127 0.0 0.0 0.00 0.00 0.00 80 1015.8
20260831152513 80 127 0.0 0.0 0.00 0.00 0.00 80 1015.8
20260831152011 80 127 0.0 0.0 0.00 0.00 0.00 81 1015.8
20260831151012 80 127 0.0 0.0 0.00 0.00 0.00 81 1015.9
20260831150511 80 127 0.0 0.0 0.00 0.00 0.00 81 1015.9
20260831150012 79 127 0.0 0.0 0.00 0.00 0.00 82 1015.9
20260831145511 79 127 0.0 0.0 0.00 0.00 0.00 83 1015.7
20260831145011 79 127 0.0 2.0 0.00 0.00 0.00 82 1015.7
20260831144011 78 126 0.0 3.0 0.00 0.00 0.00 85 1015.7
20260831143511 78 34 2.0 2.0 0.00 0.00 0.00 88 1015.7
20260831143012 78 14 0.0 0.0 0.00 0.00 0.00 90 1015.7
20260831142511 77 14 0.0 2.0 0.00 0.00 0.00 92 1015.5
20260831142011 76 14 0.0 2.0 0.00 0.00 0.00 92 1015.5
20260831141511 76 15 0.0 1.0 0.00 0.00 0.00 94 1015.5
20260831140011 75 14 0.0 0.0 0.00 0.00 0.00 97 1015.4